Santiago, Chile

5:27 PM -04 on May 20, 2018 (GMT -0400)
Arturo Merino Benitez International

Weather History for SCEL - February, 2018

Change the Weather History Date:

Friday, February 23, 2018

  Actual Average Record
Temperature  
Mean Temperature 69 °F -  
Max Temperature 84 °F 79 °F 92 °F (2016)
Min Temperature 54 °F 49 °F 50 °F (2003)
Cooling Degree Days 4    
Growing Degree Days 19 (Base 50)    
Moisture  
Dew Point 52 °F    
Average Humidity 55    
Maximum Humidity 82    
Minimum Humidity 18    
Precipitation  
Precipitation 0.00 in - - ()
Sea Level Pressure  
Sea Level Pressure 29.96 in    
Wind  
Wind Speed 7 mph ()    
Max Wind Speed 18 mph    
Max Gust Speed -    
Visibility 5.8 miles    
Events      
Averages and records for this station are not official NWS values.
T = Trace of Precipitation, MM = Missing Value Source: Averaged Metar Reports

Daily Weather History Graph

Daily Weather History Graph

Search for Another Location

Airport or City:

Astronomy

Feb. 23, 2018 Rise Set
Actual Time 7:26 AM -03 8:25 PM -03
Civil Twilight 7:00 AM -03 8:51 PM -03
Nautical Twilight 6:30 AM -03 9:21 PM -03
Astronomical Twilight 5:59 AM -03 9:52 PM -03
Moon 2:55 PM -03 (2/23) 12:52 AM -03 (2/23)
Length of Visible Light 13h 50m
Length of Day
12h 59m
First Quarter, 53% of the Moon is Illuminated
Feb 23
First Quarter
Mar 1
Full
Mar 9
Last Quarter
Mar 17
New
Mar 24
First Quarter

Hourly Weather History & Observations

Time (-03) Temp. Heat Index Dew Point Humidity Pressure Visibility Wind Dir Wind Speed Gust Speed Precip Events Conditions
12:00 AM 66.2 °F - 50.0 °F 56% 29.98 in - SSE 8.1 mph - N/A   Clear
1:00 AM 64.4 °F - 50.0 °F 59% 29.98 in - South 5.8 mph - N/A   Clear
2:00 AM 62.6 °F - 51.8 °F 68% 29.98 in - SSE 9.2 mph - N/A   Clear
3:00 AM 60 °F - 53 °F 70% 29.96 in 6 mi South 6.9 mph - -   Partly Cloudy
3:00 AM 60.8 °F - 53.6 °F 77% 29.95 in - South 6.9 mph - N/A   Clear
4:00 AM 59.0 °F - 53.6 °F 82% 29.95 in - South 5.8 mph - N/A   Clear
5:00 AM 59.0 °F - 53.6 °F 82% 29.95 in - Variable 2.3 mph - N/A   Clear
6:00 AM 57.2 °F - 50.0 °F 77% 29.95 in - North 3.5 mph - N/A   Clear
7:00 AM 57.2 °F - 50.0 °F 77% 29.95 in - Variable 2.3 mph - N/A   Clear
8:00 AM 57.2 °F - 51.8 °F 82% 29.95 in 4.3 mi Variable 2.3 mph - N/A   Unknown
9:00 AM 62 °F - 52 °F 60% 29.96 in 5 mi Calm Calm - -   Haze
9:00 AM 60.8 °F - 51.8 °F 72% 29.98 in 5.0 mi Variable 1.2 mph - N/A   Scattered Clouds
10:00 AM 66.2 °F - 51.8 °F 60% 29.98 in 6.2 mi South 3.5 mph - N/A   Mostly Cloudy
11:00 AM 69.8 °F - 51.8 °F 53% 29.98 in 5.0 mi South 6.9 mph - N/A   Mostly Cloudy
12:00 PM 75.2 °F - 51.8 °F 44% 29.98 in 5.0 mi South 6.9 mph - N/A   Mostly Cloudy
1:00 PM 77.0 °F - 48.2 °F 36% 29.98 in 6.2 mi SSE 9.2 mph - N/A   Mostly Cloudy
2:00 PM 77.0 °F - 50.0 °F 39% 29.98 in 6.2 mi South 10.4 mph - N/A   Mostly Cloudy
3:00 PM 82 °F - 46 °F 18% 29.88 in 6 mi South 10.4 mph - -   Partly Cloudy
3:00 PM 82.4 °F - 46.4 °F 28% 29.95 in 6.2 mi South 10.4 mph - N/A   Mostly Cloudy
4:00 PM 82.4 °F - 50.0 °F 32% 29.95 in 6.2 mi SSW 17.3 mph - N/A   Scattered Clouds
5:00 PM 82.4 °F - 51.8 °F 35% 29.92 in 6.2 mi SSW 13.8 mph - N/A   Scattered Clouds
6:00 PM 82.4 °F 81.4 °F 53.6 °F 37% 29.92 in 6.2 mi SW 16.1 mph - N/A   Scattered Clouds
7:00 PM 78.8 °F - 53.6 °F 42% 29.95 in 6.2 mi SSW 18.4 mph - N/A   Scattered Clouds
8:00 PM 75.2 °F - 53.6 °F 47% 29.95 in 6.2 mi SSW 15.0 mph - N/A   Scattered Clouds
9:00 PM 71 °F - 54 °F 45% 29.93 in 6 mi South 15.0 mph - -   Partly Cloudy
9:00 PM 71.6 °F - 53.6 °F 53% 29.98 in 6.2 mi South 15.0 mph - N/A   Mostly Cloudy
10:00 PM 69.8 °F - 53.6 °F 56% 29.98 in 6.2 mi SE 8.1 mph - N/A   Mostly Cloudy
11:00 PM 68.0 °F - 55.4 °F 64% 29.98 in 6.2 mi SSE 11.5 mph - N/A   Scattered Clouds